This demonstration page uses our WeatherBlox Daily Observations layout. Learn more.

Left ArrowRight Arrow

39.51506, -84.39828

Hourly Observations for November 14, 2020

Temp ( °F °C ) Dew Point ( °F °C ) Humidity (%) Winds ( mph kmh ) Pressure ( in mb ) Visibility ( mi km ) Precip ( " mm )
12:15 am 00:15 Clear 29 -1.9 28 -2.4 96 96 Calm 30.25 1024 10 16.0934 0 0
12:35 am 00:35 Clear 29 -1.7 28 -2 98 98 Calm 30.25 1024 10 16.0934 0 0
12:55 am 00:55 Clear 28 -2.1 28 -2.2 99 99 Calm 30.26 1025 10 16.0934 0 0
1:15 am 01:15 Clear 28 -2.1 28 -2.1 100 100 Calm 30.26 1025 10 16.0934 0 0
1:35 am 01:35 Clear 26 -3.1 26 -3.2 99 99 Calm 30.26 1025 7 11.26538 0 0
1:55 am 01:55 Clear with Mist and Fog 27 -2.8 27 -3 99 99 Calm 30.27 1025 2.5 4.02335 0 0
2:15 am 02:15 Clear with Mist and Fog 28 -2 N/A N/A Calm 30.27 1025 3.5 5.63269 0 0
2:35 am 02:35 Clear 27 -3 26 -3.1 99 99 ENE 5 7 30.27 1025 7 11.26538 0 0
2:55 am 02:55 Clear 26 -3.2 26 -3.4 99 99 Calm 30.28 1026 7 11.26538 0 0
3:15 am 03:15 Clear with Mist and Fog 27 -3 26 -3.1 99 99 Calm 30.27 1025 5 8.0467 0 0
3:35 am 03:35 Clear with Mist and Fog 26 -3.2 26 -3.4 99 99 Calm 30.27 1025 5 8.0467 0 0
3:55 am 03:55 Clear with Mist and Fog 27 -2.8 27 -2.8 100 100 Calm 30.27 1025 4 6.43736 0 0
4:15 am 04:15 Clear with Mist and Fog 26 -3.5 26 -3.5 100 100 Calm 30.27 1025 5 8.0467 0 0
4:35 am 04:35 Clear with Mist and Fog 25 -3.7 25 -3.7 100 100 Calm 30.27 1025 5 8.0467 0 0
4:55 am 04:55 Clear with Mist and Fog 26 -3.6 25 -3.7 99 99 Calm 30.27 1025 5 8.0467 0 0
5:15 am 05:15 Clear with Mist and Fog 25 -3.7 25 -3.9 99 99 Calm 30.27 1025 5 8.0467 0 0
5:35 am 05:35 Clear with Mist and Fog 25 -3.8 25 -3.9 99 99 ENE 3 6 30.27 1025 5 8.0467 0 0
5:55 am 05:55 Clear with Mist and Fog 25 -4 25 -4.1 99 99 Calm 30.28 1025 5 8.0467 0 0
6:15 am 06:15 Clear with Mist and Fog 25 -3.9 25 -4.1 99 99 Calm 30.27 1025 5 8.0467 0 0
6:35 am 06:35 Clear with Mist and Fog 25 -3.9 25 -4.1 99 99 NE 3 6 30.27 1025 5 8.0467 0 0
6:55 am 06:55 Clear with Mist and Fog 26 -3.6 25 -3.9 98 98 Calm 30.28 1025 7 11.26538 0 0
7:15 am 07:15 Clear with Mist and Fog 26 -3.5 25 -3.7 99 99 Calm 30.27 1025 4 6.43736 0 0
7:35 am 07:35 Sunny with Mist and Fog 26 -3.3 26 -3.6 98 98 Calm 30.27 1025 5 8.0467 0 0
7:55 am 07:55 Sunny with Mist and Fog 26 -3.1 26 -3.4 98 98 Calm 30.27 1025 5 8.0467 0 0
8:15 am 08:15 Sunny with Mist and Fog 28 -2.5 27 -2.7 99 99 Calm 30.27 1025 5 8.0467 0 0
8:35 am 08:35 Sunny with Mist and Fog 30 -1.3 29 -1.6 98 98 Calm 30.27 1025 5 8.0467 0 0
8:55 am 08:55 Sunny with Mist and Fog 31 -0.7 30 -1.1 97 97 Calm 30.27 1025 5 8.0467 0 0
9:15 am 09:15 Sunny with Mist and Fog 32 -0.1 31 -0.7 96 96 Calm 30.27 1025 5 8.0467 0 0
9:35 am 09:35 Sunny with Mist and Fog 33 0.7 32 0 95 95 Calm 30.25 1024 7 11.26538 0 0
9:55 am 09:55 Sunny with Mist and Fog 35 1.6 33 0.6 93 93 Calm 30.24 1024 7 11.26538 0 0
10:15 am 10:15 Sunny with Mist and Fog 37 2.6 34 1 89 89 ESE 3 6 30.23 1024 7 11.26538 0 0
10:35 am 10:35 Sunny 38 3.1 35 1.7 91 91 E 5 7 30.22 1023 7 11.26538 0 0
10:55 am 10:55 Sunny with Mist and Fog 39 3.7 36 2 89 89 E 5 7 30.22 1023 7 11.26538 0 0
11:15 am 11:15 Sunny 40 4.6 37 2.5 86 86 Calm 30.21 1023 7 11.26538 0 0
11:35 am 11:35 Sunny 43 5.9 37 2.7 80 80 E 5 7 30.2 1023 7 11.26538 0 0
11:55 am 11:55 Sunny 46 7.7 37 3 72 72 ESE 5 7 30.17 1022 10 16.0934 0 0
12:15 pm 12:15 Sunny 47 8.4 37 3 69 69 Calm 30.16 1021 10 16.0934 0 0
12:35 pm 12:35 Sunny 50 9.9 35 1.7 57 57 Calm 30.16 1021 10 16.0934 0 0
12:55 pm 12:55 Sunny 50 10.2 35 1.9 57 57 Calm 30.15 1021 10 16.0934 0 0
1:15 pm 13:15 Sunny 51 10.6 36 2 56 56 SSW 7 11 30.15 1021 10 16.0934 0 0
1:35 pm 13:35 Partly Cloudy 51 10.6 35 1.9 55 55 S 8 13 30.12 1020 10 16.0934 0 0
1:55 pm 13:55 Sunny 51 10.8 36 2.2 56 56 SSW 7 11 30.13 1020 10 16.0934 0 0
2:15 pm 14:15 Mostly Cloudy 51 10.8 36 2.2 56 56 SSW 8 13 30.11 1020 10 16.0934 0 0
2:35 pm 14:35 Cloudy 53 11.4 37 2.8 56 56 SSW 5 7 30.09 1019 10 16.0934 0 0
2:55 pm 14:55 Mostly Cloudy 53 11.7 37 2.5 54 54 SSW 6 9 30.07 1018 10 16.0934 0 0
3:15 pm 15:15 Cloudy 53 11.7 37 2.9 55 55 S 3 6 30.07 1018 10 16.0934 0 0
3:35 pm 15:35 Cloudy 53 11.8 37 2.7 54 54 S 6 9 30.05 1018 10 16.0934 0 0
3:55 pm 15:55 Cloudy 53 11.9 37 2.7 54 54 SSW 9 15 30.05 1018 10 16.0934 0 0
4:15 pm 16:15 Mostly Cloudy 54 12.1 37 2.9 54 54 S 6 9 30.04 1017 10 16.0934 0 0
4:35 pm 16:35 Partly Cloudy 53 11.8 38 3.1 56 56 Calm 30.04 1017 10 16.0934 0 0
4:55 pm 16:55 Partly Cloudy 53 11.4 38 3.2 57 57 S 5 7 30.04 1017 10 16.0934 0 0
5:15 pm 17:15 Partly Cloudy 52 11.2 38 3.1 58 58 Calm 30.03 1017 10 16.0934 0 0
5:35 pm 17:35 Cloudy 52 11.3 38 3.4 59 59 Calm 30.03 1017 10 16.0934 0 0
5:55 pm 17:55 Cloudy 52 11 38 3.6 61 61 Calm 30.03 1017 10 16.0934 0 0
6:15 pm 18:15 Partly Cloudy 52 11.3 38 3.2 58 58 S 5 7 30.02 1016 10 16.0934 0 0
6:35 pm 18:35 Mostly Cloudy 53 11.7 37 2.9 55 55 S 6 9 30.01 1016 10 16.0934 0 0
6:55 pm 18:55 Cloudy 54 12 37 2.6 53 53 SSW 6 9 30.01 1016 10 16.0934 0 0
7:15 pm 19:15 Cloudy 54 12 37 2.5 53 53 SSW 6 9 30 1016 10 16.0934 0 0
7:35 pm 19:35 Cloudy 53 11.9 37 2.5 53 53 S 8 13 29.99 1016 10 16.0934 0 0
7:55 pm 19:55 Cloudy 53 11.7 37 2.8 55 55 SSW 6 9 29.98 1015 10 16.0934 0 0
8:15 pm 20:15 Cloudy 53 11.8 37 2.6 54 54 S 7 11 29.97 1015 10 16.0934 0 0
8:35 pm 20:35 Mostly Cloudy 54 12 37 2.5 53 53 S 6 9 29.96 1015 10 16.0934 0 0
8:55 pm 20:55 Cloudy 53 11.9 37 2.8 54 54 SSW 8 13 29.95 1014 10 16.0934 0 0
9:15 pm 21:15 Cloudy 54 12.1 37 2.6 53 53 S 9 15 29.94 1014 10 16.0934 0 0
9:35 pm 21:35 Cloudy with Light Rain 54 12 37 2.9 54 54 SSW 8 13 29.94 1014 10 16.0934 0 0
9:55 pm 21:55 Mostly Cloudy 53 11.9 38 3.1 55 55 SSW 5 7 29.92 1013 10 16.0934 0 0
10:15 pm 22:15 Mostly Cloudy with Light Rain 54 12 38 3.2 55 55 SSW 5 7 29.91 1013 10 16.0934 0 0
10:35 pm 22:35 Cloudy 54 12 38 3.4 56 56 SSW 3 6 29.89 1012 10 16.0934 0 0
10:55 pm 22:55 Cloudy 54 12 39 3.8 58 58 SSW 5 7 29.88 1012 10 16.0934 0 0
11:15 pm 23:15 Mostly Cloudy 54 12 38 3.5 56 56 S 3 6 29.86 1011 10 16.0934 0 0
11:35 pm 23:35 Mostly Cloudy 54 12.1 38 3.6 56 56 SSW 3 6 29.84 1011 10 16.0934 0 0
11:55 pm 23:55 Cloudy with Light Rain 55 12.7 39 3.9 55 55 SW 8 13 29.82 1010 10 16.0934 0 0

Powered by AerisWeather